SCP
1 0 0 0 0 0 0 0 0 0 0 0 0 0 0 0 0 0 0 0 0 0 0 0 0 0 1 1 1 1 1 1 1 1 1 1 1 1 1 1 1 1 1 1 1 1 1 1 1
0 0 0 0 0 0 0 0 0 0 0 0 0 0 0 0 0 0 0 0 0 0 0 0 0 0 1 1 1 1 1 1 1 1 1 1 1 1 1 1 1 1 1 1 1 1 1 1 1
0 0 0 0 0 0 0 0 0 0 0 0 0 0 0 0 0 0 0 0 0 0 0 0 0 1 1 1 1 1 1 1 1 1 1 1 1 1 1 1 1 1 0 1 1 1 1 1 1
0 0 0 0 0 0 0 0 0 0 0 0 0 0 0 0 0 0 0 0 0 0 0 0 0 1 1 1 1 1 1 1 1 1 1 1 1 1 1 1 1 1 0 0 0 1 1 1 1
0 0 0 0 0 0 0 0 0 0 0 0 0 0 0 0 0 0 1 1 0 0 0 0 0 1 1 1 1 1 1 1 1 1 1 1 1 1 1 1 1 0 0 0 0 1 1 1 1
0 0 0 0 0 0 0 0 0 0 0 0 0 0 0 0 0 0 1 0 0 0 0 0 0 1 1 1 1 1 1 1 1 1 1 1 1 1 1 1 0 0 0 0 1 1 1 1 1
0 0 0 0 0 0 0 0 0 0 0 0 0 0 0 0 0 0 0 0 0 0 0 0 0 0 0 0 1 1 1 1 1 1 1 1 1 0 0 0 0 0 1 1 1 1 1 1 0
0 0 0 0 0 0 0 0 0 0 0 0 0 0 0 0 0 0 0 0 0 0 0 0 0 0 0 0 1 1 1 1 1 1 1 1 1 0 0 0 0 0 0 1 1 1 1 1 1
0 0 0 0 0 0 0 0 0 0 0 0 0 0 0 0 0 0 0 0 0 0 0 0 0 0 0 0 0 1 1 1 1 0 0 0 0 0 0 0 0 0 0 0 0 0 1 1 1
0 0 0 0 0 0 1 0 0 0 0 0 0 0 0 0 0 0 0 0 0 0 0 0 0 0 0 0 0 0 0 0 0 0 0 0 0 0 0 0 0 0 0 0 0 0 0 0 0
0 0 0 0 1 1 1 1 0 0 0 0 1 1 0 0 0 0 0 0 0 0 0 0 0 0 0 0 0 0 0 0 0 0 0 0 0 0 0 0 0 0 0 0 0 0 0 0 0
0 0 0 0 0 1 1 1 0 0 0 0 1 1 0 0 0 0 0 0 0 0 0 0 0 0 0 0 0 0 0 0 0 0 0 0 0 0 0 0 0 0 0 0 0 0 0 0 0
0 0 0 0 0 0 0 0 0 0 0 0 0 0 0 0 0 0 0 0 0 0 0 0 0 0 0 0 0 0 0 0 0 0 0 0 0 0 0 0 0 0 0 0 0 0 0 0 0
0 0 0 0 0 0 0 0 0 0 0 0 0 0 0 0 0 0 0 0 0 0 0 0 0 0 0 0 0 0 0 0 0 0 0 0 0 0 0 0 0 0 0 0 0 0 0 0 0
0 0 0 0 0 0 0 0 0 1 1 0 0 0 0 0 0 0 0 0 0 0 0 0 0 0 0 0 0 0 0 0 0 0 0 0 0 0 0 0 0 0 0 0 0 0 0 0 0
0 0 0 0 0 0 0 0 0 1 1 1 0 0 0 0 0 0 0 0 0 0 0 0 0 0 0 0 0 0 0 0 0 0 0 0 0 0 0 0 0 0 0 0 0 0 0 0 0
0 0 0 0 0 0 0 0 0 0 1 1 0 0 0 0 0 0 0 0 0 0 0 0 0 0 0 0 0 0 0 0 0 0 0 0 0 0 0 0 0 0 0 0 0 0 0 0 0
0 0 0 0 0 0 0 0 0 0 0 0 0 0 0 0 0 0 0 0 0 0 0 0 0 0 0 0 0 0 0 0 0 0 0 0 0 0 0 0 0 0 0 0 0 0 0 0 0
0 0 0 0 0 0 0 0 0 0 0 0 0 0 0 0 0 0 0 0 0 0 0 0 0 0 0 0 0 0 0 0 0 0 0 0 0 0 0 0 0 0 0 0 0 0 0 0 0
0 0 0 0 0 0 0 0 0 0 0 0 0 0 0 0 0 0 0 0 0 0 0 0 0 0 0 0 0 0 0 0 0 0 0 0 0 0 0 0 0 0 0 0 0 0 0 0 0
0 0 0 0 0 0 0 0 0 0 0 0 0 0 0 0 1 1 1 0 0 0 0 0 0 0 0 0 0 0 0 0 0 0 0 0 0 0 0 0 0 0 0 0 0 0 0 0 0
0 0 0 0 0 0 0 0 0 0 0 0 0 0 0 0 1 1 1 0 0 0 0 0 0 0 0 0 0 0 0 0 0 0 0 0 0 0 0 0 0 0 0 0 0 0 0 0 0
0 0 0 0 0 0 0 0 0 0 0 0 0 0 0 0 0 1 1 0 0 0 0 0 0 0 0 0 0 0 0 0 0 0 0 0 0 0 0 0 0 0 0 0 0 0 0 0 0
0 0 0 0 0 0 0 0 0 0 0 0 0 0 0 0 0 0 0 0 0 0 0 0 0 0 0 0 0 0 0 0 0 0 0 0 0 0 0 0 0 0 0 0 0 0 0 0 0
0 0 0 0 0 0 0 0 0 0 0 0 0 0 0 0 0 0 0 0 0 0 0 0 0 0 0 0 0 0 0 0 0 0 0 0 0 0 0 0 0 0 0 0 0 0 0 0 0
0 0 0 0 0 0 0 0 0 0 0 0 0 0 0 0 0 0 0 0 0 0 0 1 1 0 0 0 0 0 0 0 0 0 0 0 0 0 0 0 0 0 0 0 0 0 0 0 0
0 0 0 0 0 0 0 0 0 0 0 0 0 0 0 0 0 0 0 0 0 0 0 1 1 1 0 0 0 1 1 0 0 0 0 0 0 0 0 0 0 0 0 0 0 0 0 0 0
0 0 0 0 0 0 0 0 0 0 0 0 0 0 0 0 0 0 0 0 0 0 0 0 1 1 1 0 1 1 1 0 0 0 0 0 0 0 0 0 0 0 0 0 0 0 0 0 0
0 0 0 0 0 0 0 0 0 0 0 0 0 0 0 0 0 0 0 0 0 0 0 0 1 1 1 0 1 1 1 0 0 0 0 0 0 0 0 0 0 0 0 0 0 0 0 0 0
0 0 0 0 0 0 0 0 0 0 0 0 0 0 0 0 0 0 0 0 0 0 0 0 0 0 1 1 1 1 1 0 0 0 0 0 0 0 0 0 0 0 0 0 0 0 0 0 0
Wind_Speed
1 1 2 3 4 5 3 2 1 3 4 4 8 9 8 6 5 4 1 4 6 4 3 5 8 9 10 10 10 10 10 9 9 10 10 10 11 11 11 11 11 11 10 10 10 10 9 9 9
0 1 3 4 5 4 2 1 3 3 5 6 8 8 7 6 4 4 2 5 6 5 4 5 9 9 10 10 10 10 10 9 9 9 10 10 10 10 10 10 10 10 10 9 9 9 9 8 8
1 1 3 4 3 3 2 1 3 4 5 5 6 6 5 3 3 3 4 7 6 5 4 5 9 9 10 10 10 10 9 9 9 9 9 10 10 10 10 9 9 9 9 9 8 8 8 7 7
2 3 4 5 5 1 3 2 3 5 6 6 6 6 4 3 2 4 7 7 7 5 3 4 9 9 10 10 10 10 9 9 9 9 9 9 9 9 9 9 9 9 9 8 8 7 7 6 7
3 4 5 4 3 2 2 4 5 6 4 5 7 6 4 3 6 8 8 7 7 4 3 4 9 10 10 11 10 10 9 9 8 8 9 9 9 9 9 9 9 9 8 8 7 6 6 6 7
4 4 4 3 3 2 2 5 7 8 7 6 7 6 2 2 5 6 7 6 6 5 3 3 8 10 10 10 10 9 9 9 9 9 9 8 8 8 8 8 9 8 8 7 6 6 6 6 7
4 4 3 4 3 2 3 4 6 6 5 4 5 6 3 2 4 5 6 6 5 5 4 2 3 6 8 9 9 8 8 8 8 8 8 8 7 7 7 8 8 7 7 6 6 5 5 6 6
4 4 3 2 3 2 1 3 4 6 5 5 5 7 5 5 5 4 5 4 5 4 4 3 3 3 2 3 7 8 7 7 7 6 6 6 6 6 6 6 6 6 6 5 5 5 5 6 7
4 5 2 2 3 2 3 4 4 5 6 4 4 4 6 8 6 5 4 3 4 4 3 3 3 3 2 2 4 5 5 5 5 4 5 4 2 2 2 3 5 4 4 4 4 4 5 6 7
5 4 1 3 4 4 3 5 4 5 6 5 5 5 7 7 7 6 5 4 4 4 4 3 4 3 3 2 2 1 1 2 2 1 1 1 1 0 1 1 3 3 3 3 4 3 4 4 3
3 4 2 3 3 5 4 3 3 7 4 5 8 9 8 7 7 6 5 4 4 5 4 4 4 4 3 2 2 1 0 1 1 2 2 2 1 1 1 1 1 1 2 2 2 2 2 2 2
4 2 4 3 3 4 4 3 3 4 6 8 10 11 9 8 8 7 6 5 4 4 4 4 4 4 3 3 2 2 1 1 1 1 2 2 2 1 1 0 1 1 1 1 1 1 2 2 3
4 2 3 4 4 4 5 4 4 3 6 8 10 9 8 8 6 6 6 5 4 4 4 5 5 4 3 2 2 2 2 2 1 1 1 2 2 2 1 0 0 1 1 2 2 3 3 3 3
4 3 2 3 3 3 5 3 4 4 8 9 9 8 8 8 7 5 5 5 5 5 5 4 5 4 4 3 2 2 2 2 1 1 2 3 3 2 2 1 1 1 1 2 3 4 4 4 4
3 3 2 1 3 3 5 1 4 7 9 9 8 7 7 7 7 7 7 7 6 6 5 5 5 4 4 3 3 2 2 2 2 2 2 3 3 3 2 2 1 1 2 3 4 4 4 4 5
3 2 0 3 4 4 5 3 5 7 9 8 7 6 6 6 6 7 7 6 6 5 5 5 5 5 4 4 3 2 2 3 2 2 2 3 3 3 3 2 2 2 3 3 4 3 4 4 4
1 1 3 4 5 4 4 5 5 7 9 8 7 6 6 5 4 5 6 7 7 6 6 5 5 5 4 4 3 3 3 3 2 2 2 2 3 4 3 2 2 3 3 3 4 3 3 4 4
3 3 3 4 5 5 4 5 5 7 8 8 7 7 7 7 6 5 6 7 7 6 6 6 5 5 4 3 3 2 3 2 2 2 2 2 2 3 4 3 3 3 3 3 3 4 3 3 3
3 2 3 4 4 5 5 5 6 7 7 7 7 8 8 8 6 5 6 7 6 5 5 5 5 4 4 3 3 2 1 1 1 1 2 3 3 3 3 3 3 3 3 3 4 4 4 3 3
2 1 2 3 2 3 3 5 5 7 10 10 10 10 9 7 6 6 5 6 6 6 5 5 6 5 4 3 2 2 2 1 1 1 2 2 3 3 4 3 3 3 3 3 3 3 3 1 1
2 3 3 2 1 2 1 4 3 4 5 6 8 9 10 12 11 8 7 6 6 6 7 6 5 5 5 4 3 3 3 3 2 2 1 1 2 3 3 3 3 3 3 3 3 3 4 2 0
3 3 3 2 2 2 1 2 7 4 4 6 8 8 10 11 10 9 8 7 7 7 6 6 6 5 5 5 5 5 3 2 2 1 0 0 1 2 2 3 3 3 3 3 3 3 3 3 1
4 3 1 2 2 1 1 1 7 1 4 7 8 9 10 11 11 11 9 9 7 7 7 6 6 5 4 5 5 5 3 2 1 1 1 0 1 1 2 3 3 3 2 3 3 3 3 2 2
2 4 5 5 4 2 4 3 6 4 8 7 8 9 10 11 10 9 8 7 6 6 6 6 6 5 4 5 5 5 5 4 3 2 1 0 0 1 1 2 2 3 2 3 3 3 3 2 2
4 6 4 5 4 5 3 2 7 7 6 8 10 10 10 11 10 9 9 9 8 7 7 6 7 5 5 5 5 5 5 5 5 4 3 2 1 0 1 2 2 2 2 2 3 3 2 2 2
2 8 6 4 3 5 3 3 7 5 3 4 6 7 9 10 10 11 11 10 9 9 7 7 7 5 5 5 4 4 4 3 3 3 3 3 2 2 2 2 2 2 2 3 3 2 2 2 2
3 3 6 6 1 1 3 3 4 4 3 3 5 6 7 9 10 10 10 10 9 9 8 8 7 6 5 5 4 4 4 4 4 3 3 2 2 2 2 2 2 2 3 3 3 2 2 2 2
5 6 5 4 2 2 4 3 3 2 1 2 4 6 7 7 8 9 9 9 9 8 7 7 7 6 5 5 5 4 4 4 4 3 3 3 2 3 4 3 3 2 2 3 3 2 2 3 2
2 2 4 4 4 4 2 6 5 6 5 5 5 6 7 9 9 9 9 9 8 7 7 7 6 5 5 5 4 4 4 4 4 3 3 3 3 3 4 3 3 3 3 3 3 3 3 3 2
5 5 6 4 3 4 3 7 5 5 5 5 5 5 6 8 8 8 9 8 7 7 7 7 6 6 5 5 4 5 4 4 3 3 3 3 3 3 3 4 3 3 3 3 3 3 3 3 3
Wind_Direction
302 18 90 60 54 54 51 5 74 53 57 60 70 77 78 59 76 119 162 111 118 115 102 95 102 106 106 107 107 104 103 101 101 102 101 101 103 103 100 99 98 98 96 95 92 88 86 84 83
18 78 76 61 76 73 36 337 75 77 128 120 77 72 74 70 75 103 98 119 120 114 102 100 105 110 109 108 106 105 104 102 103 105 105 104 103 103 102 100 98 97 96 95 92 88 85 81 79
257 156 86 70 78 116 133 177 109 81 92 94 76 51 63 79 89 113 132 131 116 108 99 108 113 116 112 110 109 107 105 104 104 106 107 106 106 105 104 103 101 101 99 97 93 90 85 78 73
67 51 56 73 81 91 145 160 116 95 69 61 92 68 55 36 112 129 132 129 117 109 104 118 121 122 118 115 113 112 111 108 106 106 108 108 109 110 108 108 106 105 103 99 97 92 86 80 71
69 71 63 72 77 73 91 97 91 88 77 73 88 88 64 26 100 121 134 136 127 126 122 124 126 123 119 117 114 111 112 111 108 108 111 111 112 114 113 111 111 107 104 100 96 92 86 79 70
54 66 80 94 90 81 74 90 85 87 105 107 98 102 94 126 120 134 141 143 142 141 136 122 129 127 121 119 118 116 114 112 109 107 110 113 114 116 117 117 115 110 106 104 96 90 83 72 65
97 82 101 124 109 84 114 106 104 110 104 105 115 104 128 172 163 146 142 145 142 140 131 118 119 123 124 125 124 122 119 116 114 113 114 115 116 119 122 122 120 118 115 110 100 91 79 71 66
123 96 80 97 115 120 132 100 107 110 105 108 110 130 166 195 171 134 128 131 137 141 144 147 134 121 119 127 134 131 128 125 123 121 117 119 119 117 120 120 124 123 121 116 106 92 79 75 68
88 77 98 146 142 155 125 95 74 69 88 68 75 136 162 159 142 120 110 110 140 153 169 166 161 157 153 162 142 132 129 126 123 121 123 107 74 78 107 132 132 129 125 122 113 95 76 67 60
83 97 140 164 155 151 134 122 119 90 83 82 79 94 130 142 142 140 144 149 158 171 183 175 178 185 183 175 131 119 116 110 108 114 127 119 124 109 118 130 138 132 127 119 110 88 71 59 51
102 134 122 97 121 118 111 99 100 119 123 160 153 152 153 151 152 158 169 169 170 172 173 172 180 185 178 161 153 141 107 108 120 141 151 127 104 82 78 48 34 44 69 58 56 55 50 59 61
89 107 123 116 95 97 114 111 93 130 172 169 161 158 159 161 168 172 173 175 164 154 166 163 167 160 162 153 156 152 145 140 154 154 139 127 114 110 103 80 39 43 52 69 60 66 64 64 68
96 124 128 128 111 115 110 114 117 138 150 144 147 155 163 171 176 178 175 170 157 145 148 153 153 147 142 130 144 135 147 159 167 138 142 137 127 128 118 87 50 64 94 103 96 82 76 69 72
153 138 125 130 126 131 123 129 114 169 152 148 150 161 169 171 172 166 164 164 160 154 147 145 146 143 134 130 125 121 126 136 134 139 131 126 129 132 122 106 85 80 94 101 103 98 91 79 79
121 99 66 158 155 150 115 103 178 178 161 159 163 167 170 172 166 167 170 165 163 160 151 143 149 138 129 125 118 115 116 107 101 106 112 117 123 122 116 108 91 91 102 99 92 85 83 87 83
72 78 230 246 182 172 130 214 222 175 161 167 176 174 172 176 173 171 164 158 159 153 145 144 139 132 126 122 117 114 102 94 86 93 102 106 111 114 104 102 103 109 103 100 97 92 86 81 80
42 189 221 249 201 169 159 221 220 183 168 176 187 182 177 179 178 169 159 158 161 154 142 133 128 129 127 116 109 106 94 86 86 85 95 105 108 111 106 104 110 105 97 101 113 98 104 100 92
224 221 223 223 214 172 188 229 216 194 182 184 186 184 181 179 189 175 159 157 156 146 139 139 131 130 123 102 88 74 66 62 68 79 101 109 106 110 112 110 105 101 96 93 104 106 90 102 104
213 219 241 242 220 176 201 227 220 200 192 188 188 186 185 184 184 169 156 151 146 140 138 141 140 145 131 113 109 103 87 61 56 60 86 97 106 114 113 111 103 106 110 123 124 113 99 96 108
227 241 265 290 237 175 211 246 236 198 202 195 190 186 184 177 172 174 163 154 153 153 150 148 152 156 152 146 144 142 134 113 104 68 71 94 108 115 126 130 130 122 117 115 119 119 114 117 120
253 200 213 229 315 28 91 318 280 247 213 200 193 183 179 178 178 177 171 167 158 158 161 162 165 159 156 145 116 93 68 47 39 37 40 54 108 123 128 138 136 129 129 137 140 139 138 144 172
262 239 194 156 88 297 117 279 282 250 220 207 201 186 181 181 178 177 174 170 173 172 161 157 160 153 153 144 136 139 139 148 192 194 178 64 96 119 130 135 135 138 138 143 150 141 145 139 150
222 232 168 148 126 338 309 190 284 253 222 221 205 192 184 180 178 179 178 178 176 163 154 155 152 147 151 150 146 142 148 168 178 170 132 84 58 102 120 131 132 138 142 146 138 129 132 143 155
171 50 40 51 70 321 248 181 275 240 219 212 200 192 184 178 178 178 174 163 160 152 149 151 151 152 154 150 149 152 161 163 152 160 163 156 43 61 119 132 130 137 138 143 144 137 136 143 133
85 80 35 10 13 266 260 174 253 251 229 199 191 189 181 175 172 170 166 165 162 157 156 156 152 156 158 153 158 164 166 167 169 174 172 169 163 174 189 140 135 138 140 138 133 130 141 144 136
153 133 148 184 224 284 323 230 265 276 230 177 173 170 167 170 174 175 175 171 167 165 162 160 157 161 165 160 167 167 166 166 174 178 169 174 182 190 175 150 143 140 135 130 122 117 133 126 134
141 164 164 142 207 276 291 288 319 7 51 100 132 143 165 175 176 176 174 172 168 168 170 166 162 165 172 174 167 167 172 171 175 175 166 172 175 168 153 143 136 130 122 123 120 111 115 113 115
158 154 103 117 155 252 284 260 237 237 207 147 154 166 177 175 174 173 174 175 172 171 172 165 161 169 176 176 178 175 179 176 169 161 167 166 167 156 144 144 136 123 114 115 115 115 119 114 110
145 131 122 138 160 162 246 270 227 201 191 182 188 181 173 175 178 176 176 173 169 165 165 167 166 165 172 176 175 170 176 174 163 162 171 168 165 161 157 155 145 137 135 122 120 119 115 112 98
174 175 147 155 223 174 180 265 268 192 190 182 185 182 178 175 175 172 169 166 166 168 170 174 173 173 180 178 169 170 169 167 164 169 173 165 166 175 167 155 147 149 144 137 139 139 129 126 124